Regional Weather Roundup
Issued by NWS

Home | Current Version | Previous Version | Text Only | Print | Product List | Glossary On
Versions: 1 2 3 4 5 6 7 8 9 10 11 12 13 14 15 16 17 18 19 20 21 22 23 24 25 26 27 28 29 30 31 32 33 34 35 36 37 38 39 40 41 42 43 44 45 46 47 48 49 50
343
ASUS45 KBOU 280307
RWRCO

WEATHER ROUNDUP FOR COLORADO
NATIONAL WEATHER SERVICE DENVER/BOULDER CO
900 PM MDT WED JUL 27 2016

NOTE: "FAIR" INDICATES FEW OR NO CLOUDS BELOW 12000 FEET WITH NO
SIGNIFICANT WEATHER AND/OR OBSTRUCTIONS TO VISIBILITY.

COZ001>005-013-030-031-280400-
...NORTHWEST COLORADO...

CITY           SKY/WX    TMP DP  RH WIND       PRES   REMARKS
CRAIG          FAIR      68  31  25 CALM      30.19R
HAYDEN         FAIR      75  25  15 E6        30.22S
MEEKER         FAIR      71  38  29 CALM      30.21R
MOUNT WERNER   NOT AVBL
STEAMBOAT SPGS FAIR      74  27  17 CALM      30.25S
WALDEN         FAIR      63  21  20 N8        30.39R
$$

COZ006>008-011-280400-
...WEST CENTRAL VALLEYS...

CITY           SKY/WX    TMP DP  RH WIND       PRES   REMARKS
GRAND JUNCTION FAIR      85  27  12 NE6       30.04R
MONTROSE       FAIR      79  43  27 SE5       30.15R
EAGLE          FAIR      81  27  13 SE5       30.25R
RIFLE          FAIR      83  25  12 CALM      30.12R
DELTA          NOT AVBL
NUCLA          NOT AVBL
$$

COZ017>023-064>068-280400-
...SOUTHWEST COLORADO...

CITY           SKY/WX    TMP DP  RH WIND       PRES   REMARKS
DURANGO        FAIR      76  26  15 N6        30.19R
CORTEZ         FAIR      77  40  26 E5        30.14R
PAGOSA SPRINGS FAIR      76  21  12 NW3       30.30R
TELLURIDE      FAIR      71  25  17 CALM      30.48S
WOLF CREEK PAS FAIR      59  27  29 N8G16     30.72R
$$

COZ009-010-012-014-032>034-037-058>063-280400-
...CENTRAL COLORADO...

CITY           SKY/WX    TMP DP  RH WIND       PRES   REMARKS
ASPEN          FAIR      66  38  35 S7        30.34R
BUENA VISTA    FAIR      69  25  19 NW7       30.35R
COPPER MTN     FAIR      61  19  20 NW7       30.74S
BERTHOUD PASS  FAIR      52  36  54 NW12G18   30.77S
COTTONWOOD PAS FAIR      72  14  11 CALM      30.53R
GUNNISON       FAIR      72  34  25 N6        30.35R
KREMMLING      FAIR      70  28  21 CALM      30.32S
LEADVILLE      MOCLDY    61  26  26 NE7       30.53S
MONARCH PASS   FAIR      59  32  36 MISG      30.82R
SALIDA         FAIR      77  36  22 E6        30.38R
SUNLIGHT       NOT AVBL
WILKERSON PASS FAIR      61  30  31 CALM      30.69S
$$

COZ069>075-280400-
...SAN LUIS VALLEY/SANGRE DE CRISTO MOUNTAINS...

CITY           SKY/WX    TMP DP  RH WIND       PRES   REMARKS
ALAMOSA        FAIR      73  39  29 E12       30.28R
LA VETA PASS   FAIR      63  34  34 NE20G25   30.54S
SAGUACHE       FAIR      73  36  25 SE5       30.34R
$$

COZ035-036-038>040-280400-
...NORTHERN COLORADO FRONT RANGE...

CITY           SKY/WX    TMP DP  RH WIND       PRES   REMARKS
DENVER INTL AP MOCLDY    76  57  51 E22       30.17R
DMNS CITY PARK   N/A     79  56  45 NE6G15    30.18R
AURORA         MOCLDY    76  58  51 E13G24    30.19R
FRONT RANGE AP MOCLDY    77  59  53 E20G28    30.19R
ERIE MUNI ARPT FAIR      76  57  51 CALM      30.17R
BOULDER MUN AP FAIR      79  55  44 CALM      30.19R
CENTENNIAL     MOCLDY    77  52  41 E7        30.19R
BROOMFIELD     PTCLDY    79  57  47 N6        30.22R
LONGMONT       NOT AVBL
$$

COZ041-046-047-076>085-087-088-280400-
...PIKES PEAK/PALMER DIVIDE AND SOUTHERN FOOTHILLS...

CITY           SKY/WX    TMP DP  RH WIND       PRES   REMARKS
COLO. SPRINGS  FAIR      78  48  34 E13       30.24R
A. F. ACADEMY  MOCLDY    77  46  33 E5        30.25R
SCHRIEVER AFB  NOT AVBL
ELLICOTT       FAIR     N/A N/A N/A SE9       30.23R
FALCON         FAIR      70  53  53 E7        30.31R
FORT CARSON    FAIR      78  47  33 SW7       30.20R
LIMON          FAIR      74  57  55 E15       30.19R
MONUMENT HILL  FAIR      70  52  52 SE12      30.32R
TRINIDAD       NOT AVBL
$$

COZ042>045-048>051-090-091-280400-
...NORTHEAST COLORADO...

CITY           SKY/WX    TMP DP  RH WIND       PRES   REMARKS
GREELEY ARPT   FAIR      72  63  73 NE3       30.15R
AKRON          FAIR      73  60  63 E13       30.15S
BURLINGTON     FAIR      76  61  59 NE5       30.15R
WRAY           NOT AVBL
STERLING       NOT AVBL
HOLYOKE        NOT AVBL
FORT MORGAN    NOT AVBL
$$

COZ086-089-092>099-280400-
...SOUTHEAST COLORADO...

CITY           SKY/WX    TMP DP  RH WIND       PRES   REMARKS
PUEBLO         FAIR      83  57  41 E13       30.09R
LA JUNTA       FAIR      83  55  38 SE16      30.07R
LAMAR          FAIR      78  56  46 S16G22    30.04R
SPRINGFIELD      N/A     67  61  81 S13       30.14R
$$




USA.gov is the U.S. government's official web portal to all federal, state and local government web resources and services.